Location: McFarlands Corners
(41.4117°N, 81.3382°W)
Time: 14:11:00
(UTC+00:00)

Tiros 1 despin weight - Pass Details

Date: 14 November 2024
Orbit: 570 x 610 km, 48.2° (Epoch: 01 December)

Event Time Altitude Azimuth Distance (km) Brightness Sun altitude
Exits shadow 10:49:36 27° 298° (WNW) 1,148 ? -15.8°
Maximum altitude 10:51:22 40° 347° (NNW) 885 ? -15.4°
Drops below altitude 10° 10:55:31 10° 58° (ENE) 1,913 ? -14.7°
Sets 10:57:54 0° 66° (ENE) 2,807 ? -14.2°
